SCP
0 0 0 0 0 0 0 0 0 0 0 0 0 0 0 0 0 0 0 0 0 0 0 0 1 0 0 1 0 1 1 1 0 1 0 0 0 0 0 -0 -0 -0 -0
0 0 0 0 0 0 0 0 0 0 0 0 0 0 0 0 0 0 0 0 -0 0 0 0 0 0 0 1 1 1 1 1 1 0 0 0 0 -0 0 0 -0 -0 -0
0 0 0 0 0 0 0 0 0 0 0 0 0 0 0 0 0 0 0 -0 0 0 0 0 -0 0 1 1 1 1 1 0 0 0 0 0 -0 -0 0 0 0 -0 -0
0 0 0 0 0 0 0 0 0 0 0 0 0 0 0 0 0 -0 0 0 0 0 0 0 -0 -0 0 0 1 0 0 0 0 0 0 0 -0 0 0 0 0 -0 -0
0 0 0 0 0 0 0 0 0 0 0 0 0 0 0 0 0 0 -0 0 0 0 -0 -0 -0 -0 -0 0 0 0 0 0 0 0 0 0 0 0 0 0 0 0 -0
0 0 0 0 0 0 0 0 0 0 0 0 0 -0 -0 -0 0 -0 -0 -0 -0 0 -0 0 0 0 -0 0 0 0 0 0 0 0 0 0 0 0 0 0 0 0 0
0 0 0 0 0 0 0 0 0 0 0 0 -0 -0 -0 -0 -0 -0 0 -0 0 -0 -0 0 0 0 0 0 0 1 0 0 0 0 0 0 0 0 0 0 0 0 0
-0 0 0 0 0 0 0 0 0 0 0 0 0 -0 -0 0 0 0 -0 -0 0 -0 0 0 0 0 -0 0 1 1 0 0 0 0 0 0 0 0 0 0 0 0 0
-0 -0 0 0 0 0 0 0 0 0 0 -0 0 0 0 0 0 0 -0 -0 0 -0 -0 -0 -0 0 -0 0 0 0 0 0 0 0 0 0 0 0 0 0 0 0 0
-0 -0 -0 0 0 0 0 0 0 0 0 0 0 0 -0 0 0 0 -0 -0 0 -0 0 -0 0 0 0 0 0 0 0 0 0 0 0 0 0 0 0 0 0 0 0
0 0 -0 0 0 0 0 0 0 0 0 0 0 0 0 -0 -0 0 0 0 0 0 0 0 0 0 0 0 0 0 0 0 0 0 0 0 0 0 0 0 0 0 0
0 -0 -0 0 0 0 0 0 0 -0 0 -0 -0 0 0 0 0 0 0 0 0 0 0 -0 0 0 0 0 0 0 0 0 0 0 0 0 0 0 0 0 0 0 0
0 -0 -0 -0 0 0 0 0 0 0 0 -0 0 0 0 -0 -0 0 0 0 0 0 0 0 0 0 0 0 0 -0 0 0 0 0 0 0 1 0 0 0 0 0 0
-0 -0 -0 -0 -0 0 0 0 0 0 0 -0 -0 -0 0 -0 0 -0 0 0 0 0 0 -0 0 0 0 0 0 -0 0 0 0 0 0 0 0 0 0 0 0 0 0
-0 -0 -0 -0 -0 0 -0 0 0 0 0 0 0 -0 -0 -0 0 0 -0 0 0 0 0 -0 0 0 0 0 0 0 0 0 0 0 0 0 0 0 0 0 0 0 0
-0 -0 0 0 0 -0 0 0 0 0 0 0 0 0 0 0 -0 -0 -0 0 0 0 0 0 0 0 0 0 0 0 0 0 0 0 0 0 0 0 0 0 0 0 0
0 0 0 0 0 0 0 0 0 0 0 0 0 0 0 0 0 0 0 0 0 0 0 0 0 0 -0 0 -0 -0 -0 0 0 0 0 0 0 0 0 0 0 0 0
0 0 0 0 0 0 0 0 0 0 0 0 0 0 0 0 0 0 0 0 0 0 0 0 0 0 0 0 0 0 0 0 0 -0 -0 -0 -0 0 0 -0 -0 -0 -0
0 0 0 0 0 0 0 0 0 0 0 0 0 0 0 0 0 0 0 0 0 0 0 -0 0 0 -0 -0 0 0 0 0 0 0 -0 -0 -0 -0 -0 -0 -0 -0 -0
0 0 0 0 0 0 0 0 0 0 0 0 0 0 0 0 0 0 0 0 0 0 0 0 0 0 0 0 0 0 0 0 0 0 0 0 0 0 0 -0 -0 -0 -0
0 0 0 0 0 0 0 0 0 0 0 0 0 0 0 0 0 0 0 0 0 0 0 0 0 0 -0 0 0 0 -0 0 0 0 0 0 0 0 0 0 0 -0 -0
0 0 0 0 0 0 0 0 0 0 0 0 0 0 0 0 0 0 0 0 0 0 0 0 0 0 0 0 0 0 -0 -0 0 0 0 0 0 0 0 0 0 0 0
0 0 0 0 0 0 0 0 0 0 0 0 0 0 0 0 0 0 0 0 0 0 0 0 0 0 0 0 0 0 0 0 0 0 0 0 0 0 0 0 0 0 0
0 0 0 0 0 0 0 0 0 0 0 0 0 0 0 0 0 0 0 0 0 0 0 0 0 0 0 0 0 0 0 0 0 0 0 0 0 0 0 0 0 0 0
0 0 0 0 0 0 0 0 0 0 0 0 0 0 0 0 0 0 0 0 0 0 0 0 0 0 0 0 0 0 0 0 0 0 0 -0 -0 0 0 0 0 0 0
0 0 0 0 0 0 0 0 0 0 0 0 0 0 0 0 0 0 0 0 0 0 0 0 0 0 0 0 0 0 0 0 0 0 0 0 0 0 -0 0 0 0 0
Wind_Speed_500mb
17 12 15 21 22 21 14 21 24 18 17 14 15 13 8 12 15 21 27 35 38 41 38 29 25 27 30 31 31 35 36 32 30 28 25 22 15 14 17 18 23 34 35
28 20 23 16 15 13 16 10 8 11 11 9 12 6 5 5 8 7 14 22 26 33 34 37 33 27 29 34 37 36 40 41 41 30 18 10 10 14 16 15 15 24 35
24 12 14 20 19 19 14 9 4 6 14 13 13 15 16 4 11 18 22 15 20 11 8 12 20 31 33 38 42 43 45 48 43 29 16 6 13 16 13 12 14 22 35
12 11 10 11 7 14 8 15 8 8 8 14 10 14 14 5 11 6 11 4 7 13 18 3 15 21 28 38 44 49 49 50 41 30 24 21 23 18 12 11 16 27 36
13 13 14 7 13 17 12 11 11 10 5 3 4 5 13 5 6 6 6 11 4 11 18 17 12 17 27 36 42 49 49 48 40 31 27 26 24 19 15 19 26 35 34
27 16 17 11 14 16 10 7 8 11 14 5 7 15 2 4 4 6 11 17 21 19 26 22 22 20 27 33 40 48 49 45 40 30 26 24 23 23 24 29 34 35 32
20 24 14 14 14 16 10 9 10 13 12 9 14 17 24 23 17 21 9 8 7 4 22 19 19 24 31 37 41 49 46 41 41 30 25 22 23 25 29 32 33 32 29
13 20 12 17 10 11 12 10 12 14 13 13 13 8 17 7 16 27 21 23 22 18 17 9 9 22 36 38 39 48 45 39 41 33 26 24 23 26 28 29 30 30 26
13 19 14 16 8 14 11 11 16 10 9 5 19 15 6 13 19 7 14 15 2 17 12 12 15 25 33 34 34 44 48 39 38 39 28 24 26 26 28 28 28 26 24
18 15 15 13 9 14 10 9 16 14 6 8 18 24 28 20 7 4 11 11 4 4 19 7 20 20 25 32 29 38 47 40 36 38 36 24 24 24 25 26 25 24 22
18 14 13 14 14 13 7 7 14 16 15 15 19 31 18 13 9 3 6 10 11 9 3 3 14 19 22 26 27 29 41 40 37 34 37 34 23 22 22 22 23 22 22
27 22 17 12 16 14 8 5 11 7 10 15 15 6 13 10 9 8 20 17 19 11 16 26 27 24 18 24 24 24 34 41 36 35 34 35 34 27 22 18 18 20 20
24 34 24 15 11 16 9 12 9 11 10 16 18 22 17 14 15 13 19 15 15 12 12 14 18 27 24 30 23 27 30 30 37 34 34 35 35 33 30 21 16 15 16
27 21 28 21 15 16 21 13 11 13 10 9 11 12 12 17 18 16 11 12 9 9 19 14 18 20 26 25 18 27 26 26 27 32 38 37 35 34 32 28 24 19 13
26 25 25 22 15 19 18 12 15 19 15 12 5 4 10 10 9 12 13 11 14 5 10 17 17 15 17 14 18 21 21 19 21 19 25 30 32 34 34 31 24 22 20
24 27 32 29 25 25 18 12 11 17 17 13 7 11 7 4 7 7 4 4 4 11 16 23 26 20 12 9 10 10 20 23 19 17 18 19 20 24 26 27 27 23 19
32 22 28 27 27 28 23 15 13 19 10 10 7 13 14 13 15 16 9 8 9 7 8 17 18 15 17 11 9 5 10 14 14 16 17 12 11 19 21 20 18 19 19
28 25 23 23 26 29 24 20 17 10 22 9 4 5 3 2 4 8 9 11 10 6 6 8 7 17 16 14 14 10 9 13 16 13 11 15 9 13 16 17 16 8 13
33 30 31 29 32 32 33 31 20 16 21 17 9 9 5 6 6 8 5 7 6 10 12 16 9 9 8 9 11 15 18 15 16 16 13 13 13 13 13 18 15 6 4
40 38 37 34 33 39 36 34 29 26 22 20 17 11 14 8 9 8 4 4 4 9 14 15 14 13 14 17 19 18 15 20 18 14 13 7 6 5 7 11 13 3 5
33 33 36 42 36 38 39 40 32 28 26 28 27 21 17 16 13 19 11 11 10 11 13 13 12 16 16 17 17 25 27 25 17 14 15 6 10 7 5 9 12 12 4
35 34 33 37 35 40 40 33 30 27 28 32 24 31 23 20 19 15 16 11 12 12 11 11 14 15 13 15 19 20 25 26 25 21 20 13 11 12 17 16 17 16 16
43 36 33 35 39 39 37 33 28 26 22 21 24 24 27 22 22 10 10 11 14 17 20 20 17 19 18 19 19 16 15 15 18 19 19 22 23 22 18 12 10 9 8
45 46 41 39 42 40 36 34 27 25 27 25 23 23 24 19 13 17 18 18 21 22 24 24 23 18 17 13 12 9 12 15 9 13 20 28 29 22 15 4 11 18 14
48 46 45 41 44 42 40 39 33 29 28 30 28 21 18 19 20 21 20 18 16 10 7 8 6 5 9 11 11 7 6 8 11 9 23 30 30 30 15 4 15 21 20
35 42 55 53 50 48 38 26 27 28 30 27 22 17 14 13 14 14 13 16 16 18 21 20 20 16 11 9 5 1 6 13 18 11 25 28 31 30 21 2 26 30 33
Wind_Direction_500mb
122 120 128 116 113 92 106 96 92 99 108 116 104 95 123 100 61 75 84 77 67 57 52 45 42 41 35 25 16 6 359 351 341 329 313 291 270 218 204 209 214 210 205
129 117 125 111 105 103 125 112 103 82 154 129 152 162 109 112 40 9 42 48 53 47 41 41 40 36 32 25 16 11 3 357 348 338 316 286 209 191 190 192 196 193 194
128 137 104 92 110 139 147 143 155 199 108 114 102 165 225 265 50 15 42 28 46 7 349 32 33 20 23 19 15 16 8 1 3 7 24 88 142 158 161 172 177 179 179
117 148 136 122 55 75 134 77 171 183 79 101 98 109 152 204 237 346 10 37 36 9 28 23 23 9 12 11 18 17 10 10 19 35 61 93 112 128 136 143 152 156 163
157 149 167 159 114 115 109 89 88 98 131 157 30 346 317 315 265 66 26 19 34 9 24 18 6 3 19 15 19 18 13 17 29 50 74 89 97 102 109 125 132 142 151
141 171 157 125 139 157 139 141 150 123 106 82 267 232 359 28 77 256 67 42 21 19 29 15 23 23 29 34 21 17 16 22 31 53 67 78 87 88 104 117 125 133 141
175 168 152 122 137 161 129 132 138 124 108 98 125 133 110 85 41 58 70 16 358 344 2 356 16 31 41 36 28 18 17 23 34 47 63 73 87 89 104 115 123 129 135
174 168 149 160 155 138 144 150 111 83 84 95 92 126 164 88 58 21 44 42 34 291 310 9 14 40 38 36 27 24 20 26 36 48 62 75 85 94 102 110 118 126 131
177 189 180 165 148 149 122 103 64 52 101 106 74 60 37 79 94 70 42 23 118 36 11 13 293 14 32 35 30 29 21 29 37 46 61 76 83 96 103 106 113 119 126
219 222 224 202 210 172 117 106 58 34 109 118 74 48 56 75 165 107 76 56 249 284 83 360 295 28 16 28 28 34 26 33 37 44 54 71 87 91 100 105 107 113 120
194 212 222 227 209 172 154 119 70 52 71 82 89 65 72 46 33 2 79 48 24 109 58 142 83 40 29 25 22 37 33 36 40 45 48 57 77 90 95 100 99 106 114
210 208 215 240 220 199 180 191 95 97 67 50 43 276 173 26 24 11 70 63 46 152 72 123 63 39 37 30 22 54 43 39 39 48 47 50 57 71 86 93 99 100 108
208 215 221 234 249 224 220 205 157 143 115 77 62 93 83 76 77 95 76 73 52 43 50 110 56 43 38 34 51 54 40 35 38 48 48 47 50 54 59 75 91 99 102
209 200 212 226 242 216 214 204 187 162 134 106 86 93 94 80 81 72 70 31 10 43 62 47 31 33 30 27 44 43 44 45 41 45 52 48 45 48 49 51 60 69 86
214 215 223 224 236 213 218 231 220 197 158 131 137 126 67 58 55 58 54 52 29 54 8 20 26 13 17 24 32 41 44 27 36 37 43 41 42 45 44 38 42 47 50
237 218 222 219 222 208 217 218 246 210 201 217 253 256 258 299 6 12 14 30 9 18 2 32 20 8 351 343 357 17 28 65 50 24 9 12 18 27 31 33 34 41 43
223 225 227 227 219 202 203 225 263 230 224 220 263 251 238 263 276 279 277 276 286 326 12 30 34 15 5 354 116 94 49 43 37 43 43 25 360 354 360 5 16 27 33
225 216 203 213 197 208 218 226 219 234 218 207 177 103 167 242 282 344 294 290 275 282 280 344 63 59 61 71 67 82 67 20 27 38 32 38 43 12 2 359 7 359 14
227 221 218 218 218 217 221 226 218 238 213 197 211 240 203 229 261 304 282 330 297 271 282 275 293 302 313 314 330 330 321 333 359 347 316 308 322 334 6 14 347 332 314
229 229 227 222 223 224 227 220 211 216 207 210 218 229 223 214 262 293 273 309 256 253 257 272 281 296 292 298 316 327 330 347 349 332 348 347 339 359 354 12 14 44 360
230 233 233 230 230 228 226 222 226 222 221 219 209 226 219 207 231 233 255 269 274 262 259 270 287 308 320 339 355 346 341 345 350 345 15 23 38 24 329 347 11 11 323
243 241 239 226 229 227 223 226 231 225 210 210 210 217 227 241 241 249 248 250 255 262 293 302 311 318 332 330 319 324 332 347 5 1 10 11 338 342 352 338 332 321 318
245 238 233 221 221 229 224 220 215 221 214 210 207 214 231 243 228 236 252 256 263 270 282 290 295 300 301 307 310 314 324 351 4 8 13 11 1 360 347 351 340 331 325
234 239 233 230 226 227 223 219 225 218 222 231 235 228 225 228 238 240 248 254 263 272 281 285 286 284 287 289 303 318 339 354 27 357 339 351 352 9 13 360 345 350 331
242 239 234 232 236 234 232 235 231 225 224 228 234 238 241 239 243 246 248 248 247 252 277 302 297 247 239 253 254 276 289 308 337 3 331 349 347 342 3 299 347 353 343
248 236 226 218 227 238 239 231 223 217 218 225 220 220 211 206 199 197 196 185 183 155 134 141 141 142 146 144 143 71 333 333 348 351 338 342 344 351 349 230 322 333 339
Wind_Speed_850mb
17 12 15 21 22 21 14 21 24 18 17 14 15 13 8 12 15 21 27 35 38 41 38 29 25 27 30 31 31 35 36 32 30 28 25 22 15 14 17 18 23 34 35
28 20 23 16 15 13 16 10 8 11 11 9 12 6 5 5 8 7 14 22 26 33 34 37 33 27 29 34 37 36 40 41 41 30 18 10 10 14 16 15 15 24 35
24 12 14 20 19 19 14 9 4 6 14 13 13 15 16 4 11 18 22 15 20 11 8 12 20 31 33 38 42 43 45 48 43 29 16 6 13 16 13 12 14 22 35
12 11 10 11 7 14 8 15 8 8 8 14 10 14 14 5 11 6 11 4 7 13 18 3 15 21 28 38 44 49 49 50 41 30 24 21 23 18 12 11 16 27 36
13 13 14 7 13 17 12 11 11 10 5 3 4 5 13 5 6 6 6 11 4 11 18 17 12 17 27 36 42 49 49 48 40 31 27 26 24 19 15 19 26 35 34
27 16 17 11 14 16 10 7 8 11 14 5 7 15 2 4 4 6 11 17 21 19 26 22 22 20 27 33 40 48 49 45 40 30 26 24 23 23 24 29 34 35 32
20 24 14 14 14 16 10 9 10 13 12 9 14 17 24 23 17 21 9 8 7 4 22 19 19 24 31 37 41 49 46 41 41 30 25 22 23 25 29 32 33 32 29
13 20 12 17 10 11 12 10 12 14 13 13 13 8 17 7 16 27 21 23 22 18 17 9 9 22 36 38 39 48 45 39 41 33 26 24 23 26 28 29 30 30 26
13 19 14 16 8 14 11 11 16 10 9 5 19 15 6 13 19 7 14 15 2 17 12 12 15 25 33 34 34 44 48 39 38 39 28 24 26 26 28 28 28 26 24
18 15 15 13 9 14 10 9 16 14 6 8 18 24 28 20 7 4 11 11 4 4 19 7 20 20 25 32 29 38 47 40 36 38 36 24 24 24 25 26 25 24 22
18 14 13 14 14 13 7 7 14 16 15 15 19 31 18 13 9 3 6 10 11 9 3 3 14 19 22 26 27 29 41 40 37 34 37 34 23 22 22 22 23 22 22
27 22 17 12 16 14 8 5 11 7 10 15 15 6 13 10 9 8 20 17 19 11 16 26 27 24 18 24 24 24 34 41 36 35 34 35 34 27 22 18 18 20 20
24 34 24 15 11 16 9 12 9 11 10 16 18 22 17 14 15 13 19 15 15 12 12 14 18 27 24 30 23 27 30 30 37 34 34 35 35 33 30 21 16 15 16
27 21 28 21 15 16 21 13 11 13 10 9 11 12 12 17 18 16 11 12 9 9 19 14 18 20 26 25 18 27 26 26 27 32 38 37 35 34 32 28 24 19 13
26 25 25 22 15 19 18 12 15 19 15 12 5 4 10 10 9 12 13 11 14 5 10 17 17 15 17 14 18 21 21 19 21 19 25 30 32 34 34 31 24 22 20
24 27 32 29 25 25 18 12 11 17 17 13 7 11 7 4 7 7 4 4 4 11 16 23 26 20 12 9 10 10 20 23 19 17 18 19 20 24 26 27 27 23 19
32 22 28 27 27 28 23 15 13 19 10 10 7 13 14 13 15 16 9 8 9 7 8 17 18 15 17 11 9 5 10 14 14 16 17 12 11 19 21 20 18 19 19
28 25 23 23 26 29 24 20 17 10 22 9 4 5 3 2 4 8 9 11 10 6 6 8 7 17 16 14 14 10 9 13 16 13 11 15 9 13 16 17 16 8 13
33 30 31 29 32 32 33 31 20 16 21 17 9 9 5 6 6 8 5 7 6 10 12 16 9 9 8 9 11 15 18 15 16 16 13 13 13 13 13 18 15 6 4
40 38 37 34 33 39 36 34 29 26 22 20 17 11 14 8 9 8 4 4 4 9 14 15 14 13 14 17 19 18 15 20 18 14 13 7 6 5 7 11 13 3 5
33 33 36 42 36 38 39 40 32 28 26 28 27 21 17 16 13 19 11 11 10 11 13 13 12 16 16 17 17 25 27 25 17 14 15 6 10 7 5 9 12 12 4
35 34 33 37 35 40 40 33 30 27 28 32 24 31 23 20 19 15 16 11 12 12 11 11 14 15 13 15 19 20 25 26 25 21 20 13 11 12 17 16 17 16 16
43 36 33 35 39 39 37 33 28 26 22 21 24 24 27 22 22 10 10 11 14 17 20 20 17 19 18 19 19 16 15 15 18 19 19 22 23 22 18 12 10 9 8
45 46 41 39 42 40 36 34 27 25 27 25 23 23 24 19 13 17 18 18 21 22 24 24 23 18 17 13 12 9 12 15 9 13 20 28 29 22 15 4 11 18 14
48 46 45 41 44 42 40 39 33 29 28 30 28 21 18 19 20 21 20 18 16 10 7 8 6 5 9 11 11 7 6 8 11 9 23 30 30 30 15 4 15 21 20
35 42 55 53 50 48 38 26 27 28 30 27 22 17 14 13 14 14 13 16 16 18 21 20 20 16 11 9 5 1 6 13 18 11 25 28 31 30 21 2 26 30 33
Wind_Direction_850mb
122 120 128 116 113 92 106 96 92 99 108 116 104 95 123 100 61 75 84 77 67 57 52 45 42 41 35 25 16 6 359 351 341 329 313 291 270 218 204 209 214 210 205
129 117 125 111 105 103 125 112 103 82 154 129 152 162 109 112 40 9 42 48 53 47 41 41 40 36 32 25 16 11 3 357 348 338 316 286 209 191 190 192 196 193 194
128 137 104 92 110 139 147 143 155 199 108 114 102 165 225 265 50 15 42 28 46 7 349 32 33 20 23 19 15 16 8 1 3 7 24 88 142 158 161 172 177 179 179
117 148 136 122 55 75 134 77 171 183 79 101 98 109 152 204 237 346 10 37 36 9 28 23 23 9 12 11 18 17 10 10 19 35 61 93 112 128 136 143 152 156 163
157 149 167 159 114 115 109 89 88 98 131 157 30 346 317 315 265 66 26 19 34 9 24 18 6 3 19 15 19 18 13 17 29 50 74 89 97 102 109 125 132 142 151
141 171 157 125 139 157 139 141 150 123 106 82 267 232 359 28 77 256 67 42 21 19 29 15 23 23 29 34 21 17 16 22 31 53 67 78 87 88 104 117 125 133 141
175 168 152 122 137 161 129 132 138 124 108 98 125 133 110 85 41 58 70 16 358 344 2 356 16 31 41 36 28 18 17 23 34 47 63 73 87 89 104 115 123 129 135
174 168 149 160 155 138 144 150 111 83 84 95 92 126 164 88 58 21 44 42 34 291 310 9 14 40 38 36 27 24 20 26 36 48 62 75 85 94 102 110 118 126 131
177 189 180 165 148 149 122 103 64 52 101 106 74 60 37 79 94 70 42 23 118 36 11 13 293 14 32 35 30 29 21 29 37 46 61 76 83 96 103 106 113 119 126
219 222 224 202 210 172 117 106 58 34 109 118 74 48 56 75 165 107 76 56 249 284 83 360 295 28 16 28 28 34 26 33 37 44 54 71 87 91 100 105 107 113 120
194 212 222 227 209 172 154 119 70 52 71 82 89 65 72 46 33 2 79 48 24 109 58 142 83 40 29 25 22 37 33 36 40 45 48 57 77 90 95 100 99 106 114
210 208 215 240 220 199 180 191 95 97 67 50 43 276 173 26 24 11 70 63 46 152 72 123 63 39 37 30 22 54 43 39 39 48 47 50 57 71 86 93 99 100 108
208 215 221 234 249 224 220 205 157 143 115 77 62 93 83 76 77 95 76 73 52 43 50 110 56 43 38 34 51 54 40 35 38 48 48 47 50 54 59 75 91 99 102
209 200 212 226 242 216 214 204 187 162 134 106 86 93 94 80 81 72 70 31 10 43 62 47 31 33 30 27 44 43 44 45 41 45 52 48 45 48 49 51 60 69 86
214 215 223 224 236 213 218 231 220 197 158 131 137 126 67 58 55 58 54 52 29 54 8 20 26 13 17 24 32 41 44 27 36 37 43 41 42 45 44 38 42 47 50
237 218 222 219 222 208 217 218 246 210 201 217 253 256 258 299 6 12 14 30 9 18 2 32 20 8 351 343 357 17 28 65 50 24 9 12 18 27 31 33 34 41 43
223 225 227 227 219 202 203 225 263 230 224 220 263 251 238 263 276 279 277 276 286 326 12 30 34 15 5 354 116 94 49 43 37 43 43 25 360 354 360 5 16 27 33
225 216 203 213 197 208 218 226 219 234 218 207 177 103 167 242 282 344 294 290 275 282 280 344 63 59 61 71 67 82 67 20 27 38 32 38 43 12 2 359 7 359 14
227 221 218 218 218 217 221 226 218 238 213 197 211 240 203 229 261 304 282 330 297 271 282 275 293 302 313 314 330 330 321 333 359 347 316 308 322 334 6 14 347 332 314
229 229 227 222 223 224 227 220 211 216 207 210 218 229 223 214 262 293 273 309 256 253 257 272 281 296 292 298 316 327 330 347 349 332 348 347 339 359 354 12 14 44 360
230 233 233 230 230 228 226 222 226 222 221 219 209 226 219 207 231 233 255 269 274 262 259 270 287 308 320 339 355 346 341 345 350 345 15 23 38 24 329 347 11 11 323
243 241 239 226 229 227 223 226 231 225 210 210 210 217 227 241 241 249 248 250 255 262 293 302 311 318 332 330 319 324 332 347 5 1 10 11 338 342 352 338 332 321 318
245 238 233 221 221 229 224 220 215 221 214 210 207 214 231 243 228 236 252 256 263 270 282 290 295 300 301 307 310 314 324 351 4 8 13 11 1 360 347 351 340 331 325
234 239 233 230 226 227 223 219 225 218 222 231 235 228 225 228 238 240 248 254 263 272 281 285 286 284 287 289 303 318 339 354 27 357 339 351 352 9 13 360 345 350 331
242 239 234 232 236 234 232 235 231 225 224 228 234 238 241 239 243 246 248 248 247 252 277 302 297 247 239 253 254 276 289 308 337 3 331 349 347 342 3 299 347 353 343
248 236 226 218 227 238 239 231 223 217 218 225 220 220 211 206 199 197 196 185 183 155 134 141 141 142 146 144 143 71 333 333 348 351 338 342 344 351 349 230 322 333 339